General Mariano Escobedo International Airport
MMMY : now visible

Airfield :











YOU CAN JOIN US ON...

 
LOGIN :

Register | Disclaimer

   EN    FR    IT 

 









Legend :    VFR   Marginal VFR   IFR   Intensive IFR   Very Intensive IFR
Visi :
Ceiling :
>= 8 km
>= 3000ft
5 to 8 km
1000 to 3000 ft
1500m to 5 km
500 to 1000 ft
800 to 1500m
200 to 500 ft
< 800m
< 200 ft
Symbols :   Thunderstorms  Fog  Heavy snow  Heavy precipitations  Wind > 20 kt






- Airport Elevation : 1278 ft
- IATA code : MTY


MMMY - General Mariano Escobedo International

CURRENT METAR :
  • 270140Z 15007KT 10SM SKC 22/09 A2997

EXPIRED METARs :
  • 270040Z 14006KT 12SM SKC 23/09 A2994
  • 262341Z 12011KT 15SM SKC 27/09 A2991 RMK SLP/// 5//// 9//

TAF TAF MMMY
Valid from the 27 at 00:00 until the 28 at 06:00 UTC


262326Z 2700/2806 28008KT P6SM SKC TX32/2721Z TN15/2712Z
BECMG 2702/2703 00000KT
FM271000 10005KT 6SM HZ SCT015
TEMPO 2711/2715 3SM BR HZ BKN010
FM271700 12008KT P6SM SKC
BECMG 2720/2721 10015KT
FM280300 10008KT 6SM HZ SCT015



MET'MAP, your aeronautical weather chart ! - Copyright ORBIFLY December 2007 - Disclaimer

ORBIFLY MET'MAP TEAM :

Programming & Development : Alexandra Zaïnal
Concept & original design : Baudouin d'Aumeries
Assistance for programming : Marc-Olivier Méhu
Technical & hardware support : Manuel Goepfert

Contact : metmap@orbifly.com




SOURCES & CREDITS :

   NOAA       Earth
Advisory